Date String (YYYY-MM-DD hh:mm:ss) UTC,Instrument flags,absolute air pressure of the measurement (hPa),sample flow rate (lpm),inlet stack bypass flow (lpm),air temperature of the measurement (°C),ambient temperature measured by the external sensor (°C),aerosol sample conditioner tube jacket temperature (°C),OPC LED temperature (°C),internal box temperature (°C),relative humidity of the measurement (%),span deviation,mass concentration of particles derived from Lorenz-Mie calculation of OPC scattering (μg/m³),mass concentration of particles derived from Lorenz-Mie calculation of OPC scattering (μg/m³),mass concentration of particles derived from Lorenz-Mie calculation of OPC scattering (μg/m³)
DateTimeUTC,F1_M11,P_M11,Q1_M11,Q2_M11,T1_M11,T2_M11,T3_M11,T4_M11,T5_M11,U1_M11,ZSPAN_M11,X2_M11,X0_M11,X1_M11
2024-03-02 02:00:00,SystemResetWarning,0821.6,5.01,000.00,025.4,024.4,000.0,034.0,027.2,09.8,0000.0,0002.35,0007.73,0001.20
2024-03-02 02:01:00,SystemResetWarning,0821.6,5.01,000.00,025.4,024.4,000.0,034.0,027.2,09.8,0000.0,0002.32,0007.63,0001.20
2024-03-02 02:02:00,SystemResetWarning,0821.6,5.01,000.00,025.4,024.4,000.0,034.0,027.2,09.8,0000.0,0002.40,0007.81,0001.20
2024-03-02 02:03:00,SystemResetWarning,0821.7,5.00,000.00,025.4,024.4,000.0,034.0,027.2,09.8,0000.0,0002.43,0007.87,0001.21
2024-03-02 02:04:00,SystemResetWarning,0821.7,4.99,000.00,025.4,024.4,000.0,034.0,027.2,09.7,0000.0,0002.36,0007.72,0001.23
2024-03-02 02:05:00,SystemResetWarning,0821.7,5.00,000.00,025.4,024.4,000.0,033.9,027.2,09.7,0000.0,0002.35,0007.34,0001.25
2024-03-02 02:06:00,SystemResetWarning,0821.8,5.00,000.00,025.4,024.4,000.0,033.9,027.2,09.7,0000.0,0002.39,0007.30,0001.26
2024-03-02 02:07:00,SystemResetWarning,0821.8,5.01,000.00,025.4,024.4,000.0,033.9,027.2,09.7,0000.0,0002.32,0007.03,0001.26
2024-03-02 02:08:00,SystemResetWarning,0821.8,5.00,000.00,025.4,024.4,000.0,033.9,027.2,09.7,0000.0,0002.32,0006.75,0001.27
2024-03-02 02:09:00,SystemResetWarning,0821.8,5.00,000.00,025.4,024.4,000.0,033.9,027.2,09.8,0000.0,0002.35,0006.32,0001.28
2024-03-02 02:10:00,SystemResetWarning,0821.7,5.00,000.00,025.4,024.4,000.0,033.9,027.2,09.8,0000.0,0002.30,0006.13,0001.28
2024-03-02 02:11:00,SystemResetWarning,0821.8,5.00,000.00,025.4,024.4,000.0,033.9,027.2,09.8,0000.0,0002.17,0005.54,0001.28
2024-03-02 02:12:00,SystemResetWarning,0821.7,5.00,000.00,025.3,024.4,000.0,033.9,027.2,09.8,0000.0,0002.15,0005.56,0001.30
2024-03-02 02:13:00,SystemResetWarning,0821.7,5.00,000.00,025.3,024.4,000.0,033.9,027.2,09.8,0000.0,0002.15,0005.47,0001.31
2024-03-02 02:14:00,SystemResetWarning,0821.7,5.00,000.00,025.3,024.4,000.0,033.9,027.2,09.8,0000.0,0002.14,0005.56,0001.31
2024-03-02 02:15:00,SystemResetWarning,0821.7,5.00,000.00,025.3,024.4,000.0,033.9,027.2,09.8,0000.0,0002.17,0006.26,0001.30
2024-03-02 02:16:00,SystemResetWarning,0821.7,4.98,000.00,025.3,024.4,000.0,033.9,027.2,09.8,0000.0,0002.12,0007.03,0001.29
2024-03-02 02:17:00,SystemResetWarning,0821.7,5.00,000.00,025.3,024.4,000.0,033.9,027.2,09.8,0000.0,0002.10,0007.53,0001.29
2024-03-02 02:18:00,SystemResetWarning,0821.7,5.00,000.00,025.3,024.4,000.0,033.9,027.2,09.8,0000.0,0002.19,0007.43,0001.30
2024-03-02 02:19:00,SystemResetWarning,0821.7,5.00,000.00,025.3,024.4,000.0,033.9,027.2,09.8,0000.0,0002.24,0007.55,0001.31
2024-03-02 02:20:00,SystemResetWarning,0821.8,5.00,000.00,025.3,024.4,000.0,033.9,027.2,09.8,0000.0,0002.24,0007.62,0001.30
2024-03-02 02:21:00,SystemResetWarning,0821.8,5.00,000.00,025.3,024.4,000.0,033.9,027.2,09.7,0000.0,0002.30,0007.72,0001.32
2024-03-02 02:22:00,SystemResetWarning,0821.8,5.00,000.00,025.3,024.4,000.0,033.9,027.2,09.7,0000.0,0002.36,0007.78,0001.34
2024-03-02 02:23:00,SystemResetWarning,0821.8,4.99,000.00,025.3,024.4,000.0,033.9,027.2,09.7,0000.0,0002.41,0007.89,0001.35
2024-03-02 02:24:00,SystemResetWarning,0821.8,5.00,000.00,025.3,024.4,000.0,033.9,027.2,09.7,0000.0,0002.43,0007.86,0001.35
2024-03-02 02:25:00,SystemResetWarning,0821.8,5.01,000.00,025.3,024.4,000.0,033.9,027.2,09.7,0000.0,0002.43,0008.39,0001.34
2024-03-02 02:26:00,SystemResetWarning,0821.7,5.00,000.00,025.3,024.4,000.0,033.9,027.2,09.7,0000.0,0002.39,0008.26,0001.35
2024-03-02 02:27:00,SystemResetWarning,0821.8,5.00,000.00,025.3,024.4,000.0,033.9,027.1,09.7,0000.0,0002.39,0007.83,0001.36
2024-03-02 02:28:00,SystemResetWarning,0821.8,5.00,000.00,025.3,024.3,000.0,033.9,027.1,09.7,0000.0,0002.47,0006.97,0001.37
2024-03-02 02:29:00,SystemResetWarning,0821.8,5.00,000.00,025.3,024.3,000.0,033.9,027.1,09.7,0000.0,0002.41,0006.09,0001.37
2024-03-02 02:30:00,SystemResetWarning,0821.8,5.00,000.00,025.3,024.3,000.0,033.9,027.1,09.7,0000.0,0002.38,0005.98,0001.37
2024-03-02 02:31:00,SystemResetWarning,0821.8,5.00,000.00,025.3,024.3,000.0,033.9,027.1,09.7,0000.0,0002.40,0006.00,0001.37
2024-03-02 02:32:00,SystemResetWarning,0821.7,5.00,000.00,025.3,024.3,000.0,033.9,027.1,09.7,0000.0,0002.37,0006.24,0001.36
2024-03-02 02:33:00,SystemResetWarning,0821.7,5.00,000.00,025.3,024.3,000.0,033.8,027.1,09.7,0000.0,0002.29,0005.98,0001.34
2024-03-02 02:34:00,SystemResetWarning,0821.7,5.01,000.00,025.3,024.3,000.0,033.8,027.1,09.7,0000.0,0002.27,0005.92,0001.33
2024-03-02 02:35:00,SystemResetWarning,0821.7,5.00,000.00,025.3,024.3,000.0,033.8,027.1,09.7,0000.0,0002.25,0005.90,0001.33
2024-03-02 02:36:00,SystemResetWarning,0821.8,5.01,000.00,025.3,024.3,000.0,033.8,027.1,09.7,0000.0,0002.19,0004.93,0001.33
2024-03-02 02:37:00,SystemResetWarning,0821.7,4.99,000.00,025.3,024.3,000.0,033.8,027.1,09.8,0000.0,0002.16,0004.61,0001.32
2024-03-02 02:38:00,SystemResetWarning,0821.7,4.99,000.00,025.3,024.3,000.0,033.8,027.1,09.8,0000.0,0002.17,0005.03,0001.31
2024-03-02 02:39:00,SystemResetWarning,0821.7,5.01,000.00,025.2,024.3,000.0,033.8,027.1,09.8,0000.0,0002.09,0005.03,0001.29
2024-03-02 02:40:00,SystemResetWarning,0821.6,5.02,000.00,025.2,024.3,000.0,033.8,027.1,09.8,0000.0,0002.13,0005.05,0001.30
2024-03-02 02:41:00,SystemResetWarning,0821.7,4.99,000.00,025.2,024.3,000.0,033.8,027.1,09.8,0000.0,0002.14,0005.08,0001.28
2024-03-02 02:42:00,SystemResetWarning,0821.7,4.99,000.00,025.2,024.3,000.0,033.8,027.1,09.8,0000.0,0002.13,0004.97,0001.27
2024-03-02 02:43:00,SystemResetWarning,0821.7,5.00,000.00,025.2,024.3,000.0,033.8,027.1,09.8,0000.0,0002.12,0004.85,0001.25
2024-03-02 02:44:00,SystemResetWarning,0821.6,5.00,000.00,025.2,024.2,000.0,033.8,027.1,09.8,0000.0,0002.13,0004.99,0001.24
2024-03-02 02:45:00,SystemResetWarning,0821.6,5.00,000.00,025.2,024.2,000.0,033.8,027.1,09.8,0000.0,0002.15,0004.98,0001.25
2024-03-02 02:46:00,SystemResetWarning,0821.7,5.01,000.00,025.2,024.2,000.0,033.8,027.0,09.9,0000.0,0002.22,0005.20,0001.26
2024-03-02 02:47:00,SystemResetWarning,0821.7,5.00,000.00,025.2,024.2,000.0,033.8,027.0,09.9,0000.0,0002.26,0005.34,0001.26
2024-03-02 02:48:00,SystemResetWarning,0821.8,5.01,000.00,025.2,024.2,000.0,033.7,027.0,09.9,0000.0,0002.36,0005.66,0001.26
2024-03-02 02:49:00,SystemResetWarning,0821.7,5.00,000.00,025.2,024.1,000.0,033.7,026.9,09.8,0000.0,0002.32,0005.33,0001.27
2024-03-02 02:50:00,SystemResetWarning,0821.8,4.99,000.00,025.1,024.1,000.0,033.7,026.9,09.9,0000.0,0002.37,0006.42,0001.28
2024-03-02 02:51:00,SystemResetWarning,0821.8,5.01,000.00,025.1,024.1,000.0,033.7,026.9,09.9,0000.0,0002.42,0007.06,0001.30
2024-03-02 02:52:00,SystemResetWarning,0821.8,5.01,000.00,025.1,024.1,000.0,033.7,026.9,09.9,0000.0,0002.41,0007.50,0001.30
2024-03-02 02:53:00,SystemResetWarning,0821.9,4.99,000.00,025.1,024.0,000.0,033.7,026.9,09.9,0000.0,0002.41,0007.47,0001.33
2024-03-02 02:54:00,SystemResetWarning,0821.9,5.00,000.00,025.1,024.0,000.0,033.7,026.9,10.0,0000.0,0002.42,0007.33,0001.34
2024-03-02 02:55:00,SystemResetWarning,0822.0,5.00,000.00,025.1,024.0,000.0,033.7,026.8,10.0,0000.0,0002.55,0007.47,0001.36
2024-03-02 02:56:00,SystemResetWarning,0821.9,5.01,000.00,025.0,024.0,000.0,033.6,026.8,10.1,0000.0,0002.54,0007.47,0001.35
2024-03-02 02:57:00,SystemResetWarning,0821.9,5.00,000.00,025.0,024.0,000.0,033.6,026.9,10.2,0000.0,0002.44,0007.19,0001.33
2024-03-02 02:58:00,SystemResetWarning,0821.8,4.99,000.00,025.0,024.0,000.0,033.6,026.9,10.1,0000.0,0002.44,0007.15,0001.33
2024-03-02 02:59:00,SystemResetWarning,0821.8,5.00,000.00,025.0,024.0,000.0,033.6,026.9,10.1,0000.0,0002.39,0006.98,0001.33
